DESAG EDFB-EDFB

Flight info

Callsign DESAG
Flight time 0h 38m
Altitude 3500
Route DCT
Aircraft DA40/L-VGD/A

Departure

Time 2026-04-20 08:07
Airport Reichelsheim Airfield (EDFB)

Arrival

Time 2026-04-20 08:46
Airport Reichelsheim Airfield (EDFB)
Time Latitude Longitude Altitude Speed Heading
2026-04-20 08:03 50.33458 8.87600 412 ft 0 kts 268°
2026-04-20 08:05 50.33458 8.87598 412 ft 0 kts 261°
2026-04-20 08:05 50.33454 8.87657 411 ft 15 kts 117°
2026-04-20 08:05 50.33376 8.87830 412 ft 16 kts 153°
2026-04-20 08:06 50.33294 8.87833 414 ft 0 kts 108°
2026-04-20 08:06 50.33293 8.87854 414 ft 5 kts 96°
2026-04-20 08:06 50.33329 8.87896 414 ft 11 kts 357°
2026-04-20 08:06 50.33347 8.87895 414 ft 3 kts 359°
2026-04-20 08:07 50.33562 8.87886 407 ft 66 kts 357°
2026-04-20 08:07 50.34102 8.87859 598 ft 82 kts 357°
2026-04-20 08:07 50.34675 8.87820 866 ft 84 kts 357°
2026-04-20 08:07 50.35291 8.88008 1110 ft 95 kts 13°
2026-04-20 08:08 50.35895 8.88453 1260 ft 96 kts 44°
2026-04-20 08:08 50.36048 8.89479 1230 ft 106 kts 97°
2026-04-20 08:08 50.35784 8.90571 1209 ft 110 kts 126°
2026-04-20 08:08 50.35093 8.91010 1171 ft 112 kts 186°
2026-04-20 08:09 50.34333 8.90814 1167 ft 111 kts 192°
2026-04-20 08:09 50.33580 8.90570 1186 ft 109 kts 196°
2026-04-20 08:09 50.32860 8.90305 1247 ft 105 kts 195°
2026-04-20 08:09 50.32164 8.90016 1330 ft 101 kts 204°
2026-04-20 08:10 50.31754 8.89234 1247 ft 96 kts 266°
2026-04-20 08:10 50.31777 8.88256 1167 ft 76 kts 290°
2026-04-20 08:10 50.32175 8.87898 954 ft 77 kts
2026-04-20 08:10 50.32713 8.87938 722 ft 79 kts 351°
2026-04-20 08:11 50.33251 8.87899 469 ft 79 kts 356°
2026-04-20 08:11 50.33775 8.87878 436 ft 75 kts 358°
2026-04-20 08:11 50.34347 8.87859 618 ft 92 kts 358°
2026-04-20 08:11 50.34982 8.87961 886 ft 95 kts 13°
2026-04-20 08:12 50.35638 8.88305 1126 ft 99 kts 15°
2026-04-20 08:12 50.36059 8.89119 1187 ft 113 kts 86°
2026-04-20 08:12 50.35907 8.90323 1224 ft 110 kts 104°
2026-04-20 08:12 50.35278 8.90953 1221 ft 120 kts 181°
2026-04-20 08:13 50.34438 8.90849 1192 ft 123 kts 188°
2026-04-20 08:13 50.33578 8.90713 1147 ft 126 kts 188°
2026-04-20 08:13 50.32720 8.90558 1168 ft 123 kts 189°
2026-04-20 08:13 50.31998 8.90148 1181 ft 102 kts 231°
2026-04-20 08:14 50.31799 8.89198 993 ft 88 kts 277°
2026-04-20 08:14 50.31849 8.88314 927 ft 79 kts 284°
2026-04-20 08:14 50.32207 8.87843 837 ft 71 kts
2026-04-20 08:14 50.32699 8.87917 665 ft 72 kts 357°
2026-04-20 08:15 50.33205 8.87901 469 ft 73 kts 356°
2026-04-20 08:15 50.33692 8.87881 411 ft 64 kts 352°
2026-04-20 08:15 50.34092 8.87863 414 ft 52 kts 353°
2026-04-20 08:15 50.34444 8.87844 424 ft 63 kts
2026-04-20 08:16 50.34966 8.87892 654 ft 78 kts 10°
2026-04-20 08:16 50.35499 8.88180 955 ft 83 kts 18°
2026-04-20 08:16 50.36071 8.88542 1217 ft 90 kts 19°
2026-04-20 08:16 50.36649 8.88864 1540 ft 88 kts 358°
2026-04-20 08:17 50.37205 8.88494 1748 ft 98 kts 320°
2026-04-20 08:17 50.37565 8.87570 1995 ft 99 kts 288°
2026-04-20 08:17 50.37574 8.86476 2268 ft 102 kts 266°
2026-04-20 08:17 50.37480 8.85336 2425 ft 113 kts 271°
2026-04-20 08:18 50.37422 8.84048 2494 ft 122 kts 270°
2026-04-20 08:18 50.37351 8.82731 2663 ft 121 kts 270°
2026-04-20 08:18 50.37284 8.81409 2797 ft 123 kts 270°
2026-04-20 08:18 50.37207 8.80099 2957 ft 122 kts 270°
2026-04-20 08:19 50.37131 8.78725 3006 ft 127 kts 270°
2026-04-20 08:19 50.37076 8.77430 3001 ft 116 kts 270°
2026-04-20 08:19 50.37011 8.76197 3001 ft 112 kts 270°
2026-04-20 08:19 50.36941 8.75005 3003 ft 109 kts 271°
2026-04-20 08:20 50.36873 8.73829 3004 ft 108 kts 270°
2026-04-20 08:20 50.36812 8.72663 3002 ft 107 kts 270°
2026-04-20 08:20 50.36750 8.71510 3004 ft 106 kts 271°
2026-04-20 08:20 50.36681 8.70360 3006 ft 107 kts 270°
2026-04-20 08:21 50.36616 8.69193 3009 ft 107 kts 270°
2026-04-20 08:21 50.36549 8.68030 3011 ft 107 kts 271°
2026-04-20 08:21 50.36476 8.66840 2927 ft 113 kts 270°
2026-04-20 08:21 50.36403 8.65587 2799 ft 117 kts 270°
2026-04-20 08:22 50.36343 8.64318 2672 ft 117 kts 270°
2026-04-20 08:22 50.36294 8.63051 2547 ft 117 kts 271°
2026-04-20 08:22 50.36226 8.61806 2518 ft 115 kts 270°
2026-04-20 08:22 50.36159 8.60569 2519 ft 113 kts 270°
2026-04-20 08:23 50.36102 8.59348 2505 ft 110 kts 270°
2026-04-20 08:23 50.36016 8.58138 2390 ft 117 kts 261°
2026-04-20 08:23 50.35710 8.56913 2267 ft 123 kts 253°
2026-04-20 08:23 50.35309 8.55724 2134 ft 124 kts 243°
2026-04-20 08:24 50.34853 8.54658 2103 ft 111 kts 244°
2026-04-20 08:24 50.34430 8.53687 2101 ft 110 kts 244°
2026-04-20 08:24 50.33940 8.52699 2100 ft 121 kts 223°
2026-04-20 08:24 50.33093 8.52455 2105 ft 130 kts 173°
2026-04-20 08:25 50.32381 8.53241 2102 ft 127 kts 123°
2026-04-20 08:25 50.31805 8.54312 2048 ft 127 kts 135°
2026-04-20 08:25 50.31041 8.54887 1957 ft 116 kts 167°
2026-04-20 08:25 50.30342 8.55179 1889 ft 96 kts 167°
2026-04-20 08:26 50.29716 8.55218 1715 ft 88 kts 210°
2026-04-20 08:26 50.29317 8.54585 1453 ft 81 kts 248°
2026-04-20 08:26 50.29056 8.53847 1253 ft 78 kts 229°
2026-04-20 08:26 50.28743 8.53202 1141 ft 68 kts 239°
2026-04-20 08:27 50.28437 8.52522 1354 ft 81 kts 238°
2026-04-20 08:27 50.28104 8.51758 1623 ft 89 kts 245°
2026-04-20 08:27 50.27791 8.50895 1927 ft 91 kts 258°
2026-04-20 08:27 50.27950 8.49985 2047 ft 96 kts 320°
2026-04-20 08:28 50.28522 8.49403 2132 ft 98 kts 329°
2026-04-20 08:28 50.29080 8.48855 2082 ft 95 kts 330°
2026-04-20 08:28 50.29649 8.48366 2092 ft 92 kts 335°
2026-04-20 08:28 50.30234 8.47916 2118 ft 96 kts 335°
2026-04-20 08:29 50.30857 8.47635 2134 ft 97 kts
2026-04-20 08:29 50.31402 8.48324 2073 ft 111 kts 55°
2026-04-20 08:29 50.31685 8.49437 2081 ft 105 kts 62°
2026-04-20 08:29 50.31921 8.50510 2074 ft 106 kts 65°
2026-04-20 08:30 50.32146 8.51605 2073 ft 105 kts 62°
2026-04-20 08:30 50.32311 8.52726 2060 ft 111 kts 84°
2026-04-20 08:30 50.32178 8.53946 2054 ft 115 kts 98°
2026-04-20 08:30 50.31696 8.54955 2025 ft 126 kts 154°
2026-04-20 08:31 50.30875 8.55341 2019 ft 111 kts 167°
2026-04-20 08:31 50.30211 8.55584 1929 ft 96 kts 170°
2026-04-20 08:31 50.29634 8.55354 1665 ft 85 kts 242°
2026-04-20 08:31 50.29373 8.54556 1378 ft 85 kts 236°
2026-04-20 08:32 50.29029 8.53793 1130 ft 82 kts 231°
2026-04-20 08:32 50.28740 8.53136 1122 ft 72 kts 240°
2026-04-20 08:32 50.28437 8.52430 1428 ft 78 kts 240°
2026-04-20 08:32 50.28129 8.51681 1748 ft 82 kts 244°
2026-04-20 08:33 50.27865 8.50915 2081 ft 83 kts 269°
2026-04-20 08:33 50.28610 8.49506 2103 ft 89 kts 332°
2026-04-20 08:33 50.29166 8.49040 2107 ft 94 kts 332°
2026-04-20 08:34 50.29759 8.48512 2343 ft 100 kts 328°
2026-04-20 08:34 50.30354 8.47846 2499 ft 109 kts 325°
2026-04-20 08:34 50.30989 8.47118 2599 ft 114 kts 325°
2026-04-20 08:34 50.31661 8.46359 2617 ft 123 kts 326°
2026-04-20 08:35 50.32362 8.45571 2625 ft 125 kts 326°
2026-04-20 08:35 50.33155 8.45098 2622 ft 126 kts
2026-04-20 08:35 50.33867 8.45876 2615 ft 133 kts 52°
2026-04-20 08:35 50.34333 8.47140 2621 ft 135 kts 54°
2026-04-20 08:36 50.34825 8.48394 2623 ft 136 kts 53°
2026-04-20 08:36 50.35319 8.49675 2620 ft 137 kts 53°
2026-04-20 08:36 50.35593 8.51093 2617 ft 146 kts 88°
2026-04-20 08:36 50.35430 8.52693 2608 ft 146 kts 93°
2026-04-20 08:37 50.35278 8.54228 2611 ft 144 kts 93°
2026-04-20 08:37 50.35145 8.55783 2615 ft 142 kts 94°
2026-04-20 08:37 50.35006 8.57297 2611 ft 138 kts 94°
2026-04-20 08:37 50.34862 8.58810 2611 ft 141 kts 93°
2026-04-20 08:38 50.34714 8.60314 2613 ft 139 kts 94°
2026-04-20 08:38 50.34576 8.61805 2613 ft 139 kts 93°
2026-04-20 08:38 50.34444 8.63303 2611 ft 138 kts 93°
2026-04-20 08:38 50.34313 8.64787 2610 ft 137 kts 94°
2026-04-20 08:39 50.34175 8.66260 2589 ft 138 kts 94°
2026-04-20 08:39 50.34051 8.67771 2512 ft 142 kts 93°
2026-04-20 08:39 50.33914 8.69289 2512 ft 139 kts 94°
2026-04-20 08:39 50.33770 8.70785 2439 ft 141 kts 93°
2026-04-20 08:40 50.33391 8.72171 2409 ft 140 kts 124°
2026-04-20 08:40 50.32817 8.73403 2410 ft 140 kts 123°
2026-04-20 08:40 50.32241 8.74655 2308 ft 142 kts 124°
2026-04-20 08:40 50.31654 8.75890 2215 ft 140 kts 124°
2026-04-20 08:41 50.31081 8.77084 2219 ft 135 kts 123°
2026-04-20 08:41 50.30514 8.78252 2215 ft 135 kts 124°
2026-04-20 08:41 50.29952 8.79414 2211 ft 132 kts 124°
2026-04-20 08:41 50.29403 8.80561 2207 ft 131 kts 123°
2026-04-20 08:42 50.28861 8.81690 2202 ft 129 kts 123°
2026-04-20 08:42 50.28359 8.82913 2008 ft 137 kts 103°
2026-04-20 08:42 50.28217 8.84401 1805 ft 140 kts 94°
2026-04-20 08:42 50.28088 8.85844 1565 ft 122 kts 95°
2026-04-20 08:43 50.28272 8.86887 1388 ft 87 kts 31°
2026-04-20 08:43 50.28758 8.87256 1391 ft 73 kts 23°
2026-04-20 08:43 50.29198 8.87639 1371 ft 75 kts 21°
2026-04-20 08:43 50.29696 8.87991 1264 ft 80 kts 13°
2026-04-20 08:44 50.30255 8.88099 1154 ft 80 kts
2026-04-20 08:44 50.30750 8.88048 1085 ft 67 kts 351°
2026-04-20 08:44 50.31207 8.87983 1035 ft 66 kts 358°
2026-04-20 08:44 50.31667 8.87962 953 ft 66 kts 355°
2026-04-20 08:45 50.32127 8.87934 868 ft 66 kts 356°
2026-04-20 08:45 50.32585 8.87923 718 ft 66 kts 358°
2026-04-20 08:45 50.33052 8.87906 541 ft 67 kts 357°
2026-04-20 08:45 50.33510 8.87889 410 ft 62 kts 358°
2026-04-20 08:46 50.33903 8.87871 409 ft 51 kts 358°
2026-04-20 08:46 50.34211 8.87861 414 ft 33 kts 358°
2026-04-20 08:46 50.34322 8.87854 416 ft 2 kts